Weather History for KBGR - August, 2011

Change the Weather History Date:

Monday, August 1, 2011

  Actual Average Record
Temperature  
Mean Temperature 70 °F 69 °F  
Max Temperature 81 °F 80 °F 91 °F (1975)
Min Temperature 59 °F 58 °F 47 °F (1998)
Degree Days  
Heating Degree Days 0 1  
Month to date heating degree days 0 1  
Since 1 June heating degree days 118 131  
Since 1 July heating degree days 4 24  
Cooling Degree Days 5 4  
Month to date cooling degree days 5 4  
Year to date cooling degree days 227 194  
Since 1 June cooling degree days 219 188  
Growing Degree Days 20 (Base 50)    
Moisture  
Dew Point 61 °F    
Average Humidity 68    
Maximum Humidity 93    
Minimum Humidity 42    
Precipitation  
Precipitation 0.34 in 0.11 in 1.79 in (1985)
Month to date precipitation 0.34 0.11  
Year to date precipitation 22.35 23.38  
Snow  
Snow 0.00 in 0.00 in 0.00 in (2002)
Month to date snowfall 0.0 0.0  
Since 1 June snowfall 0.0 0.0  
Since 1 July snowfall 0.0 0.0  
Snow Depth 0.00 in    
Sea Level Pressure  
Sea Level Pressure 29.81 in    
Wind  
Wind Speed 7 mph (South)    
Max Wind Speed 23 mph    
Max Gust Speed 28 mph    
Visibility 10 miles    
Events Rain , Thunderstorm    
T = Trace of Precipitation, MM = Missing Value Source: NWS Daily Summary

Daily Weather History Graph

Daily Weather History Graph

Search for Another Location

Airport or City:

Trip Planner

Search our weather history database for the weather conditions in past years. The results will help you decide how hot, cold, wet, or windy it might be!

Date:

Astronomy

Aug. 01, 2011 Rise Set
Actual Time 5:20 AM EDT 8:01 PM EDT
Civil Twilight 4:47 AM EDT 8:35 PM EDT
Nautical Twilight 4:04 AM EDT 9:17 PM EDT
Astronomical Twilight 3:15 AM EDT 10:05 PM EDT
Moon 7:40 AM EDT (8/1) 8:44 PM EDT (8/1)
Length of Visible Light 15h 47m
Length of Day
14h 40m
Waxing Crescent, 5% of the Moon is Illuminated
Aug 1
Waxing Crescent
Aug 6
First Quarter
Aug 13
Full
Aug 21
Last Quarter
Aug 28
New

Hourly Weather History & Observations

Time (EDT) Temp. Heat Index Dew Point Humidity Pressure Visibility Wind Dir Wind Speed Gust Speed Precip Events Conditions
12:53 AM 63.0 °F - 57.9 °F 84% 29.95 in 10.0 mi South 4.6 mph - N/A   Scattered Clouds
1:53 AM 63.0 °F - 57.9 °F 84% 29.93 in 10.0 mi South 4.6 mph - N/A   Scattered Clouds
2:53 AM 62.1 °F - 57.9 °F 86% 29.91 in 10.0 mi South 3.5 mph - N/A   Scattered Clouds
3:53 AM 62.1 °F - 57.9 °F 86% 29.90 in 10.0 mi South 3.5 mph - N/A   Scattered Clouds
4:53 AM 62.1 °F - 57.9 °F 86% 29.90 in 10.0 mi South 3.5 mph - N/A   Mostly Cloudy
5:53 AM 60.1 °F - 57.9 °F 93% 29.90 in 10.0 mi Calm Calm - N/A   Mostly Cloudy
6:53 AM 63.0 °F - 60.1 °F 90% 29.90 in 10.0 mi South 3.5 mph - N/A   Scattered Clouds
7:53 AM 68.0 °F - 62.6 °F 83% 29.91 in 10.0 mi South 6.9 mph - N/A   Partly Cloudy
8:53 AM 71.1 °F - 64.0 °F 78% 29.90 in 10.0 mi South 4.6 mph - N/A   Scattered Clouds
9:53 AM 75.0 °F - 63.0 °F 66% 29.88 in 10.0 mi South 9.2 mph - N/A   Scattered Clouds
10:53 AM 78.1 °F - 62.1 °F 58% 29.86 in 10.0 mi South 13.8 mph - N/A   Partly Cloudy
11:53 AM 80.1 °F 80.7 °F 59.0 °F 48% 29.83 in 10.0 mi South 16.1 mph 21.9 mph N/A   Scattered Clouds
12:53 PM 80.1 °F 80.7 °F 59.0 °F 48% 29.82 in 10.0 mi South 15.0 mph 24.2 mph N/A   Scattered Clouds
1:53 PM 81.0 °F 81.3 °F 59.0 °F 47% 29.81 in 10.0 mi South 18.4 mph 27.6 mph N/A   Scattered Clouds
2:53 PM 81.0 °F 81.3 °F 59.0 °F 47% 29.78 in 10.0 mi South 18.4 mph 23.0 mph N/A   Scattered Clouds
3:53 PM 80.1 °F 80.1 °F 55.0 °F 42% 29.76 in 10.0 mi South 18.4 mph 27.6 mph N/A   Scattered Clouds
4:53 PM 80.1 °F 80.4 °F 57.0 °F 45% 29.74 in 10.0 mi South 13.8 mph - N/A   Scattered Clouds
5:53 PM 77.0 °F - 61.0 °F 58% 29.73 in 10.0 mi South 9.2 mph - N/A   Scattered Clouds
6:53 PM 73.9 °F - 63.0 °F 68% 29.74 in 10.0 mi South 6.9 mph - N/A   Mostly Cloudy
7:53 PM 72.0 °F - 64.9 °F 78% 29.72 in 10.0 mi South 6.9 mph - N/A   Mostly Cloudy
9:05 PM 68.0 °F - 64.4 °F 88% 29.73 in 9.0 mi SSE 5.8 mph - 0.02 in Rain , Thunderstorm Heavy Thunderstorms and Rain
9:13 PM 66.2 °F - 64.4 °F 94% 29.73 in 10.0 mi SSE 8.1 mph - 0.02 in Rain , Thunderstorm Light Thunderstorms and Rain
9:43 PM 66.2 °F - 64.4 °F 94% 29.75 in 10.0 mi Calm Calm - 0.03 in Rain , Thunderstorm Light Thunderstorms and Rain
9:53 PM 66.9 °F - 64.9 °F 93% 29.75 in 10.0 mi NW 13.8 mph 17.3 mph 0.03 in Rain , Thunderstorm Light Thunderstorms and Rain
10:09 PM 66.2 °F - 64.4 °F 94% 29.75 in 10.0 mi NNW 3.5 mph - N/A Thunderstorm Thunderstorm
10:11 PM 66.2 °F - 64.4 °F 94% 29.75 in 10.0 mi Calm Calm - N/A Thunderstorm Thunderstorm
10:19 PM 66.2 °F - 64.4 °F 94% 29.74 in 10.0 mi South 3.5 mph - N/A   Overcast
10:53 PM 66.9 °F - 64.9 °F 93% 29.73 in 10.0 mi SSE 4.6 mph - N/A Thunderstorm Thunderstorm
11:41 PM 66.2 °F - 64.4 °F 94% 29.71 in 10.0 mi East 8.1 mph - 0.11 in Rain , Thunderstorm Thunderstorms with Small Hail
11:53 PM 64.9 °F - 64.0 °F 97% 29.70 in 4.0 mi ESE 13.8 mph - 0.31 in Rain , Thunderstorm Heavy Thunderstorms and Rain